EVA181 RJBB-RCKH

Flight info

Callsign EVA181
Flight time 2h 47m
Altitude 32000
Route KRE V53 SUC Y24 KOSHI A1 SAPET/N0465F340 A1 APU B1 ANLOT W4 TNN TNN1M
Aircraft A321/M-SDE3FGHIRWY/LB1

Departure

Time 2026-04-16 11:18
Airport Kansai International Airport (RJBB)

Arrival

Time 2026-04-16 14:05
Airport Kaohsiung International Airport (RCKH)
Time Latitude Longitude Altitude Speed Heading
2026-04-16 11:17 34.54927 135.25616 4593 ft 281 kts 307°
2026-04-16 11:18 34.55710 135.23418 5254 ft 291 kts 280°
2026-04-16 11:18 34.55670 135.20960 5944 ft 296 kts 257°
2026-04-16 11:18 34.54948 135.18613 6624 ft 300 kts 238°
2026-04-16 11:18 34.53662 135.16625 7266 ft 301 kts 220°
2026-04-16 11:19 34.51970 135.15197 7939 ft 301 kts 204°
2026-04-16 11:19 34.50092 135.14054 8632 ft 304 kts 204°
2026-04-16 11:19 34.48188 135.12893 8935 ft 307 kts 205°
2026-04-16 11:19 34.46282 135.11725 9002 ft 306 kts 205°
2026-04-16 11:20 34.44357 135.10544 9036 ft 306 kts 205°
2026-04-16 11:20 34.42484 135.09394 9035 ft 306 kts 205°
2026-04-16 11:20 34.40587 135.08231 9036 ft 306 kts 205°
2026-04-16 11:20 34.38689 135.07070 9035 ft 306 kts 205°
2026-04-16 11:21 34.36791 135.05913 9032 ft 306 kts 205°
2026-04-16 11:21 34.34889 135.04751 9034 ft 306 kts 205°
2026-04-16 11:21 34.32988 135.03592 9027 ft 306 kts 205°
2026-04-16 11:21 34.31086 135.02430 9026 ft 306 kts 205°
2026-04-16 11:22 34.29216 135.01191 9029 ft 307 kts 211°
2026-04-16 11:22 34.27510 134.99633 9036 ft 307 kts 221°
2026-04-16 11:22 34.26021 134.97779 9128 ft 311 kts 229°
2026-04-16 11:22 34.24612 134.95795 9872 ft 311 kts 229°
2026-04-16 11:23 34.23174 134.93794 10308 ft 325 kts 228°
2026-04-16 11:23 34.21636 134.91672 10438 ft 347 kts 228°
2026-04-16 11:23 34.20561 134.90192 10524 ft 361 kts 229°
2026-04-16 11:23 34.18267 134.87032 10739 ft 385 kts 229°
2026-04-16 11:24 34.16484 134.84573 11213 ft 392 kts 229°
2026-04-16 11:24 34.14682 134.82086 11799 ft 396 kts 229°
2026-04-16 11:24 34.12860 134.79576 12387 ft 399 kts 229°
2026-04-16 11:24 34.11642 134.77900 12788 ft 402 kts 229°
2026-04-16 11:25 34.09793 134.75356 13373 ft 405 kts 230°
2026-04-16 11:25 34.07928 134.72793 13952 ft 409 kts 230°
2026-04-16 11:25 34.06047 134.70208 14489 ft 410 kts 230°
2026-04-16 11:25 34.04164 134.67618 15072 ft 411 kts 230°
2026-04-16 11:26 34.02280 134.65024 15649 ft 412 kts 231°
2026-04-16 11:26 34.00391 134.62424 16216 ft 412 kts 231°
2026-04-16 11:26 33.98500 134.59826 16826 ft 412 kts 231°
2026-04-16 11:26 33.96609 134.57235 17412 ft 412 kts 231°
2026-04-16 11:27 33.94714 134.54647 17981 ft 412 kts 231°
2026-04-16 11:27 33.92814 134.52054 18534 ft 413 kts 231°
2026-04-16 11:27 33.90957 134.49411 19010 ft 412 kts 237°
2026-04-16 11:27 33.89448 134.46495 19444 ft 410 kts 245°
2026-04-16 11:28 33.88114 134.43464 19894 ft 411 kts 245°
2026-04-16 11:28 33.86772 134.40428 20384 ft 411 kts 245°
2026-04-16 11:28 33.85424 134.37390 20827 ft 411 kts 245°
2026-04-16 11:28 33.84072 134.34358 21260 ft 412 kts 245°
2026-04-16 11:29 33.82713 134.31320 21686 ft 413 kts 245°
2026-04-16 11:29 33.81349 134.28274 22159 ft 414 kts 245°
2026-04-16 11:29 33.79985 134.25225 22599 ft 415 kts 245°
2026-04-16 11:29 33.78617 134.22169 23029 ft 416 kts 245°
2026-04-16 11:30 33.77244 134.19103 23425 ft 417 kts 245°
2026-04-16 11:30 33.75863 134.16022 23834 ft 419 kts 245°
2026-04-16 11:30 33.74479 134.12942 24191 ft 420 kts 245°
2026-04-16 11:30 33.73091 134.09853 24487 ft 421 kts 245°
2026-04-16 11:31 33.71698 134.06750 24826 ft 423 kts 245°
2026-04-16 11:31 33.70299 134.03641 25125 ft 424 kts 246°
2026-04-16 11:31 33.68898 134.00524 25427 ft 425 kts 246°
2026-04-16 11:31 33.67486 133.97391 25680 ft 427 kts 245°
2026-04-16 11:32 33.66067 133.94247 25961 ft 430 kts 245°
2026-04-16 11:32 33.64637 133.91084 26270 ft 432 kts 246°
2026-04-16 11:32 33.63202 133.87912 26565 ft 433 kts 246°
2026-04-16 11:32 33.61758 133.84728 26819 ft 435 kts 246°
2026-04-16 11:33 33.60310 133.81534 27109 ft 437 kts 246°
2026-04-16 11:33 33.58857 133.78325 27377 ft 438 kts 246°
2026-04-16 11:33 33.57416 133.75147 27628 ft 441 kts 246°
2026-04-16 11:33 33.55918 133.71877 27891 ft 444 kts 244°
2026-04-16 11:34 33.54164 133.68868 28199 ft 450 kts 236°
2026-04-16 11:34 33.51960 133.66166 28558 ft 457 kts 227°
2026-04-16 11:34 33.49417 133.63847 28897 ft 461 kts 222°
2026-04-16 11:34 33.46823 133.61596 29220 ft 460 kts 222°
2026-04-16 11:35 33.44230 133.59340 29523 ft 461 kts 223°
2026-04-16 11:35 33.41639 133.57082 29838 ft 461 kts 223°
2026-04-16 11:35 33.39047 133.54822 30153 ft 461 kts 223°
2026-04-16 11:35 33.36461 133.52571 30435 ft 460 kts 223°
2026-04-16 11:36 33.33874 133.50322 30767 ft 458 kts 224°
2026-04-16 11:36 33.31302 133.48086 31079 ft 456 kts 224°
2026-04-16 11:36 33.28746 133.45858 31424 ft 454 kts 224°
2026-04-16 11:36 33.26207 133.43640 31781 ft 451 kts 225°
2026-04-16 11:37 33.23679 133.41434 32039 ft 449 kts 225°
2026-04-16 11:37 33.18685 133.37087 32073 ft 440 kts 225°
2026-04-16 11:38 33.13745 133.32786 32090 ft 439 kts 225°
2026-04-16 11:38 33.08815 133.28493 32094 ft 439 kts 225°
2026-04-16 11:39 33.03889 133.24204 32073 ft 438 kts 225°
2026-04-16 11:39 32.98971 133.19914 32098 ft 438 kts 225°
2026-04-16 11:40 32.94061 133.15636 32107 ft 437 kts 225°
2026-04-16 11:40 32.89142 133.11374 32082 ft 437 kts 225°
2026-04-16 11:41 32.84224 133.07131 32092 ft 437 kts 225°
2026-04-16 11:41 32.79300 133.02880 32096 ft 437 kts 225°
2026-04-16 11:42 32.75054 132.98041 32093 ft 418 kts 240°
2026-04-16 11:42 32.72130 132.92200 32098 ft 410 kts 248°
2026-04-16 11:43 32.69376 132.86276 32099 ft 410 kts 248°
2026-04-16 11:43 32.66616 132.80355 32100 ft 410 kts 248°
2026-04-16 11:44 32.63843 132.74446 32100 ft 410 kts 248°
2026-04-16 11:44 32.61076 132.68536 32100 ft 410 kts 248°
2026-04-16 11:45 32.58311 132.62633 32102 ft 410 kts 248°
2026-04-16 11:45 32.55540 132.56733 32100 ft 410 kts 247°
2026-04-16 11:46 32.52765 132.50835 32081 ft 409 kts 247°
2026-04-16 11:46 32.49992 132.44945 32087 ft 409 kts 247°
2026-04-16 11:47 32.47214 132.39055 32101 ft 409 kts 247°
2026-04-16 11:47 32.44436 132.33174 32081 ft 409 kts 247°
2026-04-16 11:48 32.41653 132.27299 32085 ft 409 kts 247°
2026-04-16 11:48 32.38869 132.21428 32091 ft 409 kts 247°
2026-04-16 11:49 32.36088 132.15565 32091 ft 409 kts 246°
2026-04-16 11:49 32.33320 132.09745 32077 ft 408 kts 246°
2026-04-16 11:50 32.30532 132.03897 32082 ft 408 kts 246°
2026-04-16 11:50 32.27723 131.98021 32099 ft 408 kts 246°
2026-04-16 11:51 32.24954 131.92228 32097 ft 408 kts 246°
2026-04-16 11:51 32.22162 131.86401 32069 ft 407 kts 246°
2026-04-16 11:52 32.19371 131.80580 32076 ft 407 kts 246°
2026-04-16 11:52 32.16585 131.74764 32086 ft 407 kts 246°
2026-04-16 11:53 32.13794 131.68956 32081 ft 407 kts 246°
2026-04-16 11:53 32.11002 131.63150 32075 ft 407 kts 246°
2026-04-16 11:54 32.08202 131.57347 32074 ft 407 kts 246°
2026-04-16 11:54 32.05399 131.51556 32079 ft 406 kts 245°
2026-04-16 11:55 32.02592 131.45775 32072 ft 406 kts 245°
2026-04-16 11:55 31.99787 131.39998 32041 ft 406 kts 246°
2026-04-16 11:56 31.96987 131.34219 32057 ft 406 kts 245°
2026-04-16 11:56 31.94189 131.28443 32063 ft 406 kts 245°
2026-04-16 11:57 31.91380 131.22675 32102 ft 406 kts 245°
2026-04-16 11:57 31.88575 131.16917 32087 ft 406 kts 245°
2026-04-16 11:58 31.85759 131.11153 32089 ft 406 kts 245°
2026-04-16 11:58 31.82941 131.05398 32081 ft 406 kts 245°
2026-04-16 11:59 31.80118 130.99644 32072 ft 406 kts 245°
2026-04-16 11:59 31.77297 130.93891 32047 ft 406 kts 246°
2026-04-16 12:00 31.74474 130.88135 32049 ft 407 kts 245°
2026-04-16 12:00 31.71645 130.82385 32054 ft 406 kts 245°
2026-04-16 12:01 31.68830 130.76683 32059 ft 406 kts 245°
2026-04-16 12:01 31.65994 130.70946 32065 ft 406 kts 245°
2026-04-16 12:02 31.61745 130.62346 32077 ft 406 kts 245°
2026-04-16 12:02 31.58914 130.56617 32080 ft 406 kts 245°
2026-04-16 12:03 31.56069 130.50893 32074 ft 406 kts 245°
2026-04-16 12:03 31.53225 130.45175 32077 ft 406 kts 245°
2026-04-16 12:04 31.50379 130.39460 32076 ft 406 kts 245°
2026-04-16 12:04 31.47532 130.33750 32073 ft 406 kts 245°
2026-04-16 12:05 31.44691 130.28048 32070 ft 405 kts 245°
2026-04-16 12:05 31.41841 130.22353 32069 ft 405 kts 244°
2026-04-16 12:06 31.38984 130.16665 32069 ft 405 kts 245°
2026-04-16 12:06 31.36132 130.10980 32069 ft 405 kts 245°
2026-04-16 12:07 31.33287 130.05291 32066 ft 405 kts 245°
2026-04-16 12:07 31.30433 129.99605 32072 ft 405 kts 244°
2026-04-16 12:08 31.27286 129.94109 32047 ft 410 kts 237°
2026-04-16 12:08 31.23762 129.88860 32053 ft 410 kts 238°
2026-04-16 12:09 31.20248 129.83603 32051 ft 411 kts 238°
2026-04-16 12:09 31.16733 129.78338 32062 ft 411 kts 237°
2026-04-16 12:10 31.13805 129.73963 32054 ft 412 kts 237°
2026-04-16 12:10 31.10273 129.68702 32059 ft 412 kts 237°
2026-04-16 12:11 31.06740 129.63436 32064 ft 412 kts 237°
2026-04-16 12:11 31.03196 129.58177 32068 ft 412 kts 237°
2026-04-16 12:12 30.99656 129.52915 32050 ft 412 kts 237°
2026-04-16 12:12 30.96108 129.47654 32052 ft 413 kts 237°
2026-04-16 12:13 30.92547 129.42396 32059 ft 413 kts 237°
2026-04-16 12:13 30.88982 129.37138 32062 ft 413 kts 237°
2026-04-16 12:14 30.85429 129.31878 32050 ft 413 kts 237°
2026-04-16 12:14 30.81900 129.26656 32048 ft 413 kts 237°
2026-04-16 12:15 30.78318 129.21369 32049 ft 413 kts 237°
2026-04-16 12:15 30.74780 129.16098 32051 ft 413 kts 237°
2026-04-16 12:16 30.71305 129.10778 32042 ft 413 kts 237°
2026-04-16 12:16 30.67862 129.05485 32042 ft 414 kts 237°
2026-04-16 12:17 30.64369 129.00169 32042 ft 414 kts 237°
2026-04-16 12:17 30.60860 128.94865 32050 ft 414 kts 237°
2026-04-16 12:18 30.57353 128.89561 32028 ft 414 kts 237°
2026-04-16 12:18 30.53845 128.84253 32043 ft 414 kts 237°
2026-04-16 12:19 30.50339 128.78945 32044 ft 414 kts 237°
2026-04-16 12:19 30.46825 128.73646 32043 ft 414 kts 237°
2026-04-16 12:20 30.43306 128.68354 32018 ft 414 kts 237°
2026-04-16 12:20 30.39785 128.63062 32038 ft 415 kts 237°
2026-04-16 12:21 30.36262 128.57771 32042 ft 415 kts 237°
2026-04-16 12:21 30.32739 128.52484 32032 ft 414 kts 237°
2026-04-16 12:22 30.29222 128.47205 32012 ft 414 kts 236°
2026-04-16 12:22 30.25697 128.41931 32018 ft 415 kts 236°
2026-04-16 12:23 30.22171 128.36651 32017 ft 415 kts 236°
2026-04-16 12:23 30.18633 128.31374 32018 ft 415 kts 236°
2026-04-16 12:24 30.15097 128.26104 32021 ft 415 kts 236°
2026-04-16 12:24 30.11559 128.20834 32020 ft 415 kts 236°
2026-04-16 12:25 30.08020 128.15569 32034 ft 415 kts 236°
2026-04-16 12:25 30.04479 128.10316 32032 ft 414 kts 236°
2026-04-16 12:26 30.00948 128.05068 32020 ft 414 kts 236°
2026-04-16 12:26 29.97408 127.99828 32001 ft 414 kts 236°
2026-04-16 12:27 29.93863 127.94584 32017 ft 415 kts 236°
2026-04-16 12:27 29.90313 127.89339 32018 ft 415 kts 236°
2026-04-16 12:28 29.86757 127.84107 32018 ft 414 kts 236°
2026-04-16 12:28 29.83091 127.78968 32000 ft 416 kts 233°
2026-04-16 12:29 29.79318 127.73974 32005 ft 416 kts 233°
2026-04-16 12:29 29.75509 127.68953 32015 ft 416 kts 233°
2026-04-16 12:30 29.71707 127.63878 32017 ft 416 kts 233°
2026-04-16 12:30 29.67941 127.58832 31995 ft 416 kts 233°
2026-04-16 12:31 29.64204 127.53816 31999 ft 416 kts 233°
2026-04-16 12:31 29.60432 127.48770 32010 ft 416 kts 233°
2026-04-16 12:32 29.56690 127.43701 32017 ft 415 kts 234°
2026-04-16 12:32 29.53112 127.38502 32002 ft 414 kts 236°
2026-04-16 12:33 29.49578 127.33276 31999 ft 414 kts 236°
2026-04-16 12:33 29.46012 127.28080 32006 ft 415 kts 235°
2026-04-16 12:34 29.42420 127.22905 32016 ft 415 kts 235°
2026-04-16 12:34 29.38820 127.17739 32016 ft 414 kts 235°
2026-04-16 12:35 29.35229 127.12573 32003 ft 414 kts 235°
2026-04-16 12:35 29.31638 127.07406 32006 ft 414 kts 235°
2026-04-16 12:36 29.28049 127.02245 32008 ft 414 kts 235°
2026-04-16 12:36 29.24454 126.97090 32014 ft 414 kts 235°
2026-04-16 12:37 29.20866 126.91938 32000 ft 414 kts 235°
2026-04-16 12:37 29.17272 126.86788 32004 ft 414 kts 235°
2026-04-16 12:38 29.13668 126.81647 32009 ft 414 kts 235°
2026-04-16 12:38 29.10061 126.76514 32014 ft 414 kts 235°
2026-04-16 12:39 29.06460 126.71376 32005 ft 414 kts 235°
2026-04-16 12:39 29.02861 126.66248 32006 ft 414 kts 235°
2026-04-16 12:40 28.99254 126.61125 32007 ft 413 kts 235°
2026-04-16 12:40 28.95666 126.56055 32010 ft 414 kts 234°
2026-04-16 12:41 28.91954 126.51025 32009 ft 414 kts 233°
2026-04-16 12:41 28.88208 126.46033 32000 ft 414 kts 233°
2026-04-16 12:42 28.84470 126.41030 32001 ft 414 kts 233°
2026-04-16 12:42 28.80746 126.36017 32002 ft 414 kts 233°
2026-04-16 12:43 28.77020 126.31002 32008 ft 414 kts 233°
2026-04-16 12:43 28.73291 126.25993 31982 ft 414 kts 233°
2026-04-16 12:44 28.69560 126.20980 31993 ft 415 kts 233°
2026-04-16 12:44 28.65827 126.15967 31993 ft 415 kts 233°
2026-04-16 12:45 28.62096 126.10948 31996 ft 415 kts 234°
2026-04-16 12:45 28.58468 126.05838 31996 ft 415 kts 235°
2026-04-16 12:46 28.54873 126.00701 32005 ft 415 kts 235°
2026-04-16 12:46 28.51258 125.95577 32001 ft 415 kts 235°
2026-04-16 12:47 28.47627 125.90465 32009 ft 415 kts 234°
2026-04-16 12:47 28.43991 125.85370 32011 ft 415 kts 234°
2026-04-16 12:48 28.40362 125.80279 31996 ft 415 kts 234°
2026-04-16 12:48 28.36731 125.75188 31995 ft 415 kts 234°
2026-04-16 12:49 28.33096 125.70097 31996 ft 415 kts 234°
2026-04-16 12:49 28.29451 125.65010 32001 ft 415 kts 234°
2026-04-16 12:50 28.25808 125.59924 32006 ft 415 kts 234°
2026-04-16 12:50 28.22163 125.54840 31982 ft 415 kts 234°
2026-04-16 12:51 28.18547 125.49797 32004 ft 415 kts 234°
2026-04-16 12:51 28.14898 125.44718 32010 ft 415 kts 234°
2026-04-16 12:52 28.11253 125.39643 32002 ft 415 kts 234°
2026-04-16 12:52 28.07605 125.34573 31999 ft 415 kts 234°
2026-04-16 12:53 28.03952 125.29508 31986 ft 415 kts 234°
2026-04-16 12:53 28.00294 125.24446 31992 ft 415 kts 234°
2026-04-16 12:54 27.96632 125.19386 32002 ft 416 kts 234°
2026-04-16 12:54 27.92971 125.14326 31999 ft 416 kts 234°
2026-04-16 12:55 27.89309 125.09267 32002 ft 416 kts 234°
2026-04-16 12:55 27.85642 125.04215 31995 ft 415 kts 234°
2026-04-16 12:56 27.81978 124.99173 32002 ft 415 kts 234°
2026-04-16 12:56 27.78315 124.94133 32002 ft 415 kts 234°
2026-04-16 12:57 27.74646 124.89097 31999 ft 415 kts 234°
2026-04-16 12:57 27.70977 124.84065 31975 ft 415 kts 234°
2026-04-16 12:58 27.67932 124.79876 31983 ft 415 kts 234°
2026-04-16 12:58 27.64260 124.74852 31987 ft 415 kts 234°
2026-04-16 12:59 27.60589 124.69832 31995 ft 414 kts 234°
2026-04-16 13:00 27.54493 124.61497 31985 ft 414 kts 234°
2026-04-16 13:00 27.51421 124.57301 31967 ft 414 kts 234°
2026-04-16 13:01 27.47750 124.52290 31973 ft 415 kts 234°
2026-04-16 13:01 27.44073 124.47275 31981 ft 415 kts 234°
2026-04-16 13:02 27.40417 124.42289 31985 ft 416 kts 234°
2026-04-16 13:02 27.36696 124.37247 31989 ft 416 kts 234°
2026-04-16 13:03 27.32997 124.32242 31978 ft 416 kts 234°
2026-04-16 13:03 27.29302 124.27232 31981 ft 416 kts 234°
2026-04-16 13:04 27.25636 124.22257 31979 ft 416 kts 234°
2026-04-16 13:04 27.21916 124.17221 31982 ft 416 kts 234°
2026-04-16 13:05 27.18250 124.12252 31983 ft 416 kts 234°
2026-04-16 13:05 27.14548 124.07256 31968 ft 416 kts 234°
2026-04-16 13:06 27.10839 124.02267 31966 ft 416 kts 234°
2026-04-16 13:06 27.07136 123.97288 31973 ft 416 kts 233°
2026-04-16 13:07 27.03409 123.92327 31983 ft 416 kts 233°
2026-04-16 13:07 26.99665 123.87372 31987 ft 417 kts 233°
2026-04-16 13:08 26.95921 123.82415 31971 ft 416 kts 233°
2026-04-16 13:08 26.92372 123.77714 31978 ft 416 kts 233°
2026-04-16 13:09 26.88632 123.72767 31981 ft 416 kts 233°
2026-04-16 13:09 26.84891 123.67813 31992 ft 416 kts 233°
2026-04-16 13:10 26.81147 123.62870 31984 ft 416 kts 233°
2026-04-16 13:10 26.77397 123.57935 31975 ft 416 kts 233°
2026-04-16 13:11 26.73654 123.52996 31967 ft 416 kts 233°
2026-04-16 13:11 26.69914 123.48063 31971 ft 416 kts 233°
2026-04-16 13:12 26.66163 123.43136 31973 ft 416 kts 233°
2026-04-16 13:12 26.62407 123.38207 31980 ft 417 kts 233°
2026-04-16 13:13 26.58646 123.33276 31972 ft 417 kts 233°
2026-04-16 13:13 26.54891 123.28353 31976 ft 416 kts 233°
2026-04-16 13:14 26.51160 123.23471 31977 ft 416 kts 233°
2026-04-16 13:14 26.47401 123.18561 31977 ft 416 kts 233°
2026-04-16 13:15 26.43639 123.13655 31978 ft 416 kts 233°
2026-04-16 13:15 26.39888 123.08752 31962 ft 416 kts 233°
2026-04-16 13:16 26.36128 123.03856 31961 ft 416 kts 233°
2026-04-16 13:16 26.32366 122.98963 31962 ft 416 kts 233°
2026-04-16 13:17 26.28601 122.94071 31964 ft 416 kts 233°
2026-04-16 13:17 26.24834 122.89180 31966 ft 416 kts 233°
2026-04-16 13:18 26.21063 122.84290 31960 ft 416 kts 233°
2026-04-16 13:18 26.17287 122.79407 31963 ft 416 kts 233°
2026-04-16 13:19 26.13509 122.74525 31962 ft 416 kts 233°
2026-04-16 13:19 26.09738 122.69636 31964 ft 416 kts 233°
2026-04-16 13:20 26.05960 122.64751 31968 ft 416 kts 233°
2026-04-16 13:20 26.02173 122.59874 31964 ft 417 kts 232°
2026-04-16 13:21 25.98384 122.54999 31966 ft 417 kts 232°
2026-04-16 13:21 25.94589 122.50129 31970 ft 417 kts 232°
2026-04-16 13:22 25.90797 122.45254 31974 ft 417 kts 232°
2026-04-16 13:22 25.87007 122.40379 31976 ft 417 kts 232°
2026-04-16 13:23 25.83212 122.35507 31960 ft 417 kts 232°
2026-04-16 13:23 25.79413 122.30645 31977 ft 417 kts 232°
2026-04-16 13:24 25.75616 122.25793 31975 ft 416 kts 232°
2026-04-16 13:24 25.71826 122.20933 31976 ft 416 kts 232°
2026-04-16 13:25 25.68032 122.16081 31976 ft 416 kts 232°
2026-04-16 13:25 25.64234 122.11234 31975 ft 416 kts 232°
2026-04-16 13:26 25.60440 122.06386 31960 ft 416 kts 232°
2026-04-16 13:26 25.56649 122.01537 31961 ft 417 kts 232°
2026-04-16 13:27 25.52842 121.96701 31961 ft 417 kts 232°
2026-04-16 13:27 25.49029 121.91863 31956 ft 417 kts 232°
2026-04-16 13:28 25.45215 121.87028 31952 ft 417 kts 232°
2026-04-16 13:28 25.41404 121.82195 31939 ft 417 kts 232°
2026-04-16 13:29 25.37589 121.77353 31945 ft 418 kts 232°
2026-04-16 13:29 25.33770 121.72516 31945 ft 418 kts 232°
2026-04-16 13:30 25.29936 121.67683 31957 ft 418 kts 232°
2026-04-16 13:30 25.26131 121.62879 31962 ft 418 kts 232°
2026-04-16 13:31 25.22297 121.58045 31952 ft 419 kts 232°
2026-04-16 13:31 25.18441 121.53203 31955 ft 420 kts 229°
2026-04-16 13:32 25.13895 121.49096 31964 ft 424 kts 220°
2026-04-16 13:32 25.09169 121.45206 31964 ft 424 kts 221°
2026-04-16 13:33 25.04446 121.41312 31959 ft 424 kts 220°
2026-04-16 13:33 24.99721 121.37421 31959 ft 424 kts 220°
2026-04-16 13:34 24.94982 121.33523 31964 ft 425 kts 220°
2026-04-16 13:34 24.90237 121.29623 31969 ft 426 kts 220°
2026-04-16 13:35 24.85481 121.25719 31971 ft 426 kts 220°
2026-04-16 13:35 24.80727 121.21820 31990 ft 426 kts 220°
2026-04-16 13:36 24.75978 121.17927 31992 ft 425 kts 220°
2026-04-16 13:36 24.71231 121.14037 32011 ft 425 kts 220°
2026-04-16 13:37 24.66484 121.10157 32008 ft 425 kts 220°
2026-04-16 13:37 24.61738 121.06281 31995 ft 425 kts 220°
2026-04-16 13:38 24.56989 121.02407 31993 ft 425 kts 220°
2026-04-16 13:38 24.52241 120.98538 31990 ft 425 kts 220°
2026-04-16 13:39 24.47483 120.94658 31985 ft 426 kts 220°
2026-04-16 13:39 24.42727 120.90786 31999 ft 425 kts 220°
2026-04-16 13:40 24.38002 120.86951 32006 ft 425 kts 220°
2026-04-16 13:40 24.33247 120.83090 31995 ft 425 kts 220°
2026-04-16 13:41 24.28493 120.79231 31995 ft 426 kts 220°
2026-04-16 13:41 24.23698 120.75345 31998 ft 426 kts 220°
2026-04-16 13:42 24.18961 120.71503 32004 ft 426 kts 220°
2026-04-16 13:42 24.14188 120.67644 32008 ft 427 kts 220°
2026-04-16 13:43 24.09412 120.63785 31989 ft 426 kts 220°
2026-04-16 13:43 24.04640 120.59923 31989 ft 427 kts 220°
2026-04-16 13:44 23.99851 120.56055 31983 ft 428 kts 220°
2026-04-16 13:44 23.95828 120.52817 31975 ft 429 kts 220°
2026-04-16 13:45 23.90070 120.48595 31973 ft 434 kts 209°
2026-04-16 13:45 23.85314 120.46720 31952 ft 439 kts 202°
2026-04-16 13:46 23.79515 120.44623 31958 ft 439 kts 203°
2026-04-16 13:46 23.73716 120.42502 31968 ft 440 kts 203°
2026-04-16 13:47 23.67899 120.40380 31963 ft 443 kts 203°
2026-04-16 13:47 23.64973 120.39313 31787 ft 444 kts 203°
2026-04-16 13:47 23.62033 120.38242 30463 ft 447 kts 202°
2026-04-16 13:47 23.59058 120.37158 28491 ft 455 kts 202°
2026-04-16 13:48 23.56083 120.36078 27439 ft 441 kts 201°
2026-04-16 13:48 23.53278 120.35070 27255 ft 409 kts 202°
2026-04-16 13:48 23.50596 120.34105 26916 ft 408 kts 202°
2026-04-16 13:48 23.47873 120.33111 26238 ft 418 kts 202°
2026-04-16 13:49 23.45086 120.32084 25559 ft 426 kts 202°
2026-04-16 13:49 23.42269 120.31049 24843 ft 428 kts 201°
2026-04-16 13:49 23.39453 120.30022 24162 ft 427 kts 201°
2026-04-16 13:49 23.36638 120.29001 23480 ft 426 kts 201°
2026-04-16 13:50 23.33830 120.27987 22752 ft 424 kts 201°
2026-04-16 13:50 23.31050 120.26982 22132 ft 419 kts 201°
2026-04-16 13:50 23.28297 120.25985 21514 ft 415 kts 201°
2026-04-16 13:50 23.25569 120.24999 20915 ft 411 kts 201°
2026-04-16 13:51 23.22868 120.24020 20323 ft 407 kts 201°
2026-04-16 13:51 23.20194 120.23050 19781 ft 403 kts 201°
2026-04-16 13:51 23.17547 120.22089 19231 ft 400 kts 201°
2026-04-16 13:51 23.14848 120.21380 18705 ft 399 kts 191°
2026-04-16 13:52 23.12075 120.21189 18172 ft 399 kts 181°
2026-04-16 13:52 23.09318 120.21520 17636 ft 398 kts 172°
2026-04-16 13:52 23.06616 120.22115 17143 ft 395 kts 171°
2026-04-16 13:52 23.03969 120.22695 16674 ft 391 kts 171°
2026-04-16 13:53 23.01274 120.23282 16202 ft 388 kts 171°
2026-04-16 13:53 22.98635 120.23850 15724 ft 386 kts 171°
2026-04-16 13:53 22.96011 120.24413 15247 ft 383 kts 171°
2026-04-16 13:53 22.93411 120.24971 14759 ft 380 kts 171°
2026-04-16 13:54 22.90820 120.25531 14263 ft 378 kts 171°
2026-04-16 13:54 22.88248 120.26087 13745 ft 376 kts 171°
2026-04-16 13:54 22.85719 120.26634 13194 ft 374 kts 171°
2026-04-16 13:54 22.83175 120.27185 12648 ft 372 kts 171°
2026-04-16 13:55 22.80644 120.27731 12110 ft 370 kts 170°
2026-04-16 13:55 22.78124 120.28272 11535 ft 368 kts 170°
2026-04-16 13:55 22.75617 120.28811 10981 ft 366 kts 170°
2026-04-16 13:55 22.73164 120.29340 10840 ft 352 kts 171°
2026-04-16 13:56 22.70804 120.29849 10733 ft 339 kts 169°
2026-04-16 13:56 22.68539 120.30336 10601 ft 326 kts 170°
2026-04-16 13:56 22.66352 120.30803 10491 ft 315 kts 171°
2026-04-16 13:56 22.64236 120.31254 10307 ft 306 kts 170°
2026-04-16 13:57 22.62170 120.31697 10176 ft 300 kts 170°
2026-04-16 13:57 22.60118 120.32138 10038 ft 301 kts 169°
2026-04-16 13:57 22.58106 120.32740 9674 ft 300 kts 158°
2026-04-16 13:58 22.54634 120.35186 8920 ft 298 kts 143°
2026-04-16 13:58 22.52975 120.36535 8492 ft 300 kts 143°
2026-04-16 13:58 22.51309 120.37883 7873 ft 297 kts 144°
2026-04-16 13:58 22.49663 120.39213 7255 ft 294 kts 144°
2026-04-16 13:59 22.48075 120.40586 6679 ft 292 kts 133°
2026-04-16 13:59 22.47025 120.42422 6085 ft 286 kts 106°
2026-04-16 13:59 22.46781 120.44521 5362 ft 280 kts 82°
2026-04-16 13:59 22.47341 120.46490 4639 ft 272 kts 57°
2026-04-16 14:00 22.48552 120.48038 3917 ft 280 kts 34°
2026-04-16 14:00 22.50211 120.49193 3278 ft 287 kts 30°
2026-04-16 14:00 22.51909 120.50319 2748 ft 282 kts 30°
2026-04-16 14:00 22.53513 120.51358 2519 ft 254 kts 24°
2026-04-16 14:01 22.55096 120.51639 2513 ft 219 kts 346°
2026-04-16 14:01 22.56294 120.50793 2497 ft 202 kts 307°
2026-04-16 14:01 22.56906 120.49523 2367 ft 179 kts 291°
2026-04-16 14:01 22.57168 120.48270 2164 ft 166 kts 280°
2026-04-16 14:02 22.57281 120.47056 1963 ft 160 kts 277°
2026-04-16 14:02 22.57345 120.45874 1778 ft 152 kts 277°
2026-04-16 14:02 22.57391 120.44761 1599 ft 146 kts 276°
2026-04-16 14:02 22.57430 120.43684 1416 ft 143 kts 275°
2026-04-16 14:03 22.57467 120.42615 1253 ft 142 kts 276°
2026-04-16 14:03 22.57501 120.41555 1076 ft 141 kts 275°
2026-04-16 14:03 22.57533 120.40499 884 ft 141 kts 274°
2026-04-16 14:03 22.57549 120.39456 693 ft 137 kts 276°
2026-04-16 14:04 22.57576 120.38417 508 ft 141 kts 277°
2026-04-16 14:04 22.57642 120.37367 305 ft 139 kts 275°
2026-04-16 14:04 22.57659 120.36312 124 ft 141 kts 275°
2026-04-16 14:04 22.57695 120.35266 50 ft 135 kts 276°
2026-04-16 14:05 22.57726 120.34430 39 ft 84 kts 271°
2026-04-16 14:05 22.57737 120.33985 38 ft 34 kts 270°
2026-04-16 14:05 22.57745 120.33788 39 ft 25 kts 271°
2026-04-16 14:05 22.57749 120.33642 38 ft 19 kts 271°
2026-04-16 14:06 22.57734 120.33518 38 ft 13 kts 225°
2026-04-16 14:06 22.57651 120.33503 38 ft 11 kts 182°
2026-04-16 14:06 22.57586 120.33527 38 ft 9 kts 137°
2026-04-16 14:06 22.57542 120.33572 36 ft 8 kts 136°
2026-04-16 14:07 22.57505 120.33611 38 ft 7 kts 137°
2026-04-16 14:07 22.57467 120.33648 37 ft 7 kts 137°
2026-04-16 14:07 22.57424 120.33697 37 ft 10 kts 122°
2026-04-16 14:07 22.57418 120.33765 38 ft 9 kts 91°
2026-04-16 14:08 22.57417 120.33830 38 ft 8 kts 91°
2026-04-16 14:08 22.57415 120.33902 38 ft 12 kts 92°
2026-04-16 14:08 22.57412 120.33991 38 ft 12 kts 91°
2026-04-16 14:08 22.57373 120.34050 38 ft 9 kts 173°
2026-04-16 14:09 22.57312 120.34050 38 ft 8 kts 179°
2026-04-16 14:09 22.57267 120.34061 38 ft 4 kts 121°
2026-04-16 14:09 22.57267 120.34094 38 ft 3 kts 90°
2026-04-16 14:09 22.57267 120.34112 38 ft 0 kts 91°
2026-04-16 14:10 22.57267 120.34123 38 ft 2 kts 91°
2026-04-16 14:10 22.57267 120.34128 38 ft 0 kts 91°